Location: Invercargill
(46.4000°S, 168.3500°E)
Time: 15:24:15
(UTC+12:00)

A-11 Canister half - All Passes

Search period start: 22 July 2019 00:00
Search period end: 01 August 2019 00:00
Orbit: 1514 x 1685 km, 47.2° (Epoch: 20 July)

Date Brightness Start Highest point End Pass type
(mag) Time Alt. Az. Time Alt. Az. Time Alt. Az.
22 Jul - 13:07:14 10° NNE 13:12:58 18° NE 13:18:40 10° E daylight
22 Jul - 15:07:14 10° NW 15:16:13 54° NNE 15:25:09 10° ESE daylight
22 Jul - 17:11:24 10° WNW 17:20:47 89° S 17:30:11 10° E daylight
22 Jul - 19:16:32 10° W 19:25:53 88° N 19:35:22 10° ENE visible
22 Jul - 21:21:31 10° WSW 21:30:20 49° NW 21:39:20 10° NE visible
22 Jul - 23:28:37 10° W 23:33:29 15° NW 23:38:25 10° NNW visible
23 Jul - 12:44:50 10° NNE 12:50:11 17° NE 12:55:28 10° E daylight
23 Jul - 14:44:26 10° NW 14:53:22 52° NE 15:02:14 10° ESE daylight
23 Jul - 16:48:29 10° WNW 16:57:51 89° N 17:07:15 10° E daylight
23 Jul - 18:53:37 10° W 19:02:58 89° NNW 19:12:26 10° ENE visible
23 Jul - 20:58:36 10° WSW 21:07:29 51° NW 21:16:32 10° NE visible
23 Jul - 23:05:22 10° W 23:10:41 17° NW 23:16:06 10° NNW visible
24 Jul - 12:22:32 10° NNE 12:27:24 15° NE 12:32:13 10° E daylight
24 Jul - 14:21:37 10° NW 14:30:31 49° NE 14:39:18 10° ESE daylight
24 Jul - 16:25:34 10° WNW 16:34:57 88° NNE 16:44:19 10° E daylight
24 Jul - 18:30:42 10° W 18:40:03 90° SSW 18:49:30 10° ENE visible
24 Jul - 20:35:41 10° WSW 20:44:37 54° NNW 20:53:42 10° NE visible
24 Jul - 22:42:10 10° W 22:47:54 18° NW 22:53:42 10° NNW visible
25 Jul - 12:00:18 10° NNE 12:04:36 14° NE 12:08:53 10° E daylight
25 Jul - 13:58:50 10° NNW 14:07:40 47° NE 14:16:23 10° ESE daylight
25 Jul - 16:02:39 10° WNW 16:12:02 87° NNE 16:21:24 10° ESE daylight
25 Jul - 18:07:47 10° W 18:17:09 89° SSE 18:26:34 10° E visible
25 Jul - 20:12:46 10° WSW 20:21:45 56° NNW 20:30:53 10° NE visible
25 Jul - 22:19:01 10° W 22:25:06 20° NW 22:31:16 10° N visible
26 Jul - 11:38:12 10° NNE 11:41:50 13° ENE 11:45:25 10° E daylight
26 Jul - 13:36:04 10° NNW 13:44:49 45° NE 13:53:27 10° ESE daylight
26 Jul - 15:39:44 10° WNW 15:49:07 85° NNE 15:58:29 10° ESE daylight
26 Jul - 17:44:51 10° W 17:54:13 88° S 18:03:38 10° E visible
26 Jul - 19:49:51 10° WSW 19:58:53 58° NNW 20:08:03 10° NE visible
26 Jul - 21:55:55 10° W 22:02:19 21° NW 22:08:48 10° N visible
27 Jul - 11:16:20 10° NE 11:19:03 11° ENE 11:21:46 10° ENE daylight
27 Jul - 13:13:18 10° NNW 13:21:58 43° NE 13:30:30 10° ESE daylight
27 Jul - 15:16:49 10° WNW 15:26:13 84° NNE 15:35:34 10° ESE daylight
27 Jul - 17:21:55 10° W 17:31:18 87° S 17:40:42 10° E daylight
27 Jul - 19:26:56 10° WSW 19:36:01 61° NNW 19:45:12 10° NE visible
27 Jul - 21:32:50 10° W 21:39:30 23° NW 21:46:16 10° N visible
28 Jul - 10:55:07 10° NE 10:56:17 10° ENE 10:57:27 10° ENE daylight
28 Jul - 12:50:32 10° NNW 12:59:08 40° NE 13:07:35 10° ESE daylight
28 Jul - 14:53:53 10° WNW 15:03:19 82° NNE 15:12:39 10° ESE daylight
28 Jul - 16:58:59 10° W 17:08:23 86° S 17:17:46 10° E daylight
28 Jul - 19:04:01 10° WSW 19:13:09 63° NNW 19:22:21 10° NE visible
28 Jul - 21:09:46 10° W 21:16:42 24° NW 21:23:43 10° N visible
29 Jul - 12:27:47 10° NNW 12:36:18 38° NE 12:44:38 10° ESE daylight
29 Jul - 14:30:59 10° WNW 14:40:25 80° NNE 14:49:44 10° ESE daylight
29 Jul - 16:36:04 10° W 16:45:28 86° S 16:54:50 10° E daylight
29 Jul - 18:41:07 10° WSW 18:50:16 65° NNW 18:59:30 10° NE visible
29 Jul - 20:46:44 10° W 20:53:54 26° NW 21:01:08 10° N visible
30 Jul - 12:05:04 10° NNW 12:13:27 36° NE 12:21:41 10° ESE daylight
30 Jul - 14:08:04 10° WNW 14:17:31 78° NNE 14:26:49 10° ESE daylight
30 Jul - 16:13:07 10° W 16:22:32 85° S 16:31:54 10° E daylight
30 Jul - 18:18:11 10° WSW 18:27:23 68° NNW 18:36:38 10° NE visible
30 Jul - 20:23:43 10° W 20:31:05 27° NW 20:38:32 10° N visible
31 Jul - 11:42:21 10° NNW 11:50:38 34° NE 11:58:43 10° ESE daylight
31 Jul - 13:45:10 10° WNW 13:54:37 76° NNE 14:03:54 10° ESE daylight
31 Jul - 15:50:11 10° W 15:59:37 85° S 16:08:58 10° E daylight
31 Jul - 17:55:16 10° WSW 18:04:31 70° NNW 18:13:46 10° NE visible
31 Jul - 20:00:42 10° WSW 20:08:17 29° NW 20:15:54 10° N visible
